Location: Newark
(13.6797°N, 8.5297°E)
Time: 15:27:31
(UTC+00:00)

Altair - Pass Details

Date: 01 February 2020
Orbit: 1502 x 1682 km, 47.2° (Epoch: 17 February)

Event Time Altitude Azimuth Distance (km) Brightness Sun altitude
Exits shadow 02:46:41 26° 171° (S) 2,727 8.8 -44.8°
Maximum altitude 02:51:00 37° 127° (SE) 2,284 8.6 -43.8°
Drops below altitude 10° 02:59:44 10° 64° (ENE) 3,861 10.0 -41.7°
Sets 03:03:13 0° 56° (ENE) 4,871 10.6 -40.9°
